Location: Asch
(48.2982°N, 10.2128°E)
Time: 06:11:43
(UTC+00:00)

Daily predictions for brighter satellites

Satellite Brightness Start Highest point End
(mag) Time Altitude Azimuth Time Altitude Azimuth Time Altitude Azimuth
USA 238 DEB 4.4 18:41:07 10° NW 18:48:29 69° SW 18:56:29 10° SSE
USA 238 4.4 18:41:17 10° NW 18:48:40 69° SW 18:56:41 10° SSE
CZ-4B R/B 3.9 18:43:43 10° SE 18:48:52 39° ENE 18:54:05 10° N
SL-8 Rocket 4.1 18:43:42 10° S 18:49:58 82° E 18:56:19 10° N
SL-8 R/B 4.2 18:47:07 10° SW 18:51:30 39° SSE 18:55:54 10° E
NOSS 2-1 (D) 3.1 18:51:42 10° NW 18:55:02 86° NE 18:59:23 10° SE
Cosmos 1125 Rocket 3.5 18:50:28 10° S 18:55:37 63° ESE 19:00:50 10° NNE
Meteor 2-14 Rocket 4.5 18:50:39 10° N 18:56:49 84° E 19:02:57 10° S
ERS-1 Rocket 3.3 18:55:38 10° SE 19:00:26 49° ENE 19:05:15 10° N
COSMOS 2428 4.3 18:56:05 10° WSW 19:01:30 42° NW 19:06:57 10° NNE
Cosmos 2341 Rocket 4.2 18:56:44 10° S 19:03:00 85° W 19:09:24 10° N
Cosmos 2292 Rocket 4.3 18:59:10 10° N 19:03:01 30° ENE 19:06:10 10° SE
NOSS 2-1 (E) 3.1 18:59:53 10° NW 19:03:14 79° NE 19:07:30 10° SE
BREEZE-M DEB (TANK) 2.1 19:01:07 10° W 19:03:23 65° N 19:06:12 10° E
Cosmos 1674 Rocket 4.0 18:59:14 10° N 19:03:23 42° ENE 19:07:32 10° SSE
CSL-04 Debris 4.2 18:58:28 10° SSE 19:03:50 87° ENE 19:09:16 10° NNW
Cosmos 2366 rocket 4.1 19:01:27 10° S 19:07:36 83° W 19:13:47 10° N
NOSS 2-1 (C) 3.2 19:05:52 10° NW 19:09:13 81° SW 19:13:35 10° SE
Cosmos 44 3.8 19:05:53 10° S 19:10:35 41° ESE 19:15:32 10° NE
Okean-O 3.8 19:07:13 10° ESE 19:10:48 26° ENE 19:14:26 10° N
Cosmos 1727 Rocket 4.1 19:06:50 10° N 19:13:09 64° ENE 19:19:22 10° SSE
MetOp-B 4.3 19:08:35 10° SSE 19:13:50 59° ENE 19:19:06 10° N
Cosmos 1378 Rocket 3.5 19:11:10 10° N 19:15:35 82° E 19:19:54 10° S
SL-16 R/B 2.6 19:11:33 10° S 19:16:47 40° ESE 19:22:03 10° NE
Okean O Rocket 2.5 19:15:51 12° SE 19:19:17 31° ENE 19:23:07 10° N
CZ-4 R/B 1.6 19:20:40 10° S 19:24:22 64° W 19:28:02 10° NNW
Spot 2 Rocket 4.0 19:23:15 13° SE 19:27:28 43° ENE 19:32:12 10° N
ATLAS 5 CENTAUR R/B 3.8 19:25:41 10° N 19:27:40 13° NNE 19:29:49 10° NE
SPOT 5 3.8 19:23:47 10° S 19:28:05 44° W 19:32:16 10° NNW
NOSS 3-1 (C) 4.2 19:21:52 10° NW 19:28:33 60° NE 19:35:43 15° ESE
NOSS 3-4 (A) 4.2 19:25:08 10° WSW 19:30:19 50° NW 19:36:07 10° NE
NOSS 3-4 (C) 4.2 19:25:38 10° WSW 19:30:50 51° NW 19:36:42 10° NE
Cosmos 1656 Rocket 3.7 19:26:29 10° NNW 19:31:58 80° WSW 19:37:23 11° SSE
Cosmos 1025 Rocket 2.9 19:28:02 10° N 19:32:18 72° E 19:36:27 11° SSE
Helios 1A Rocket 2.4 19:29:38 10° N 19:32:51 75° WNW 19:36:01 10° SSW
PAYLOAD B 4.3 19:30:29 10° SSE 19:35:59 80° WSW 19:41:31 10° NNW
Cosmos 1733 Rocket 3.8 19:32:15 10° SSW 19:36:32 55° WNW 19:40:53 10° N
Terra 1.8 19:32:31 10° SSE 19:37:13 89° ENE 19:41:56 10° NNW
Meteor 2-8 Rocket 4.4 19:33:07 10° S 19:39:08 72° E 19:45:10 10° NNE
BREEZE-M DEB (TANK) 2.3 19:36:40 10° WNW 19:39:21 82° SSW 19:43:54 16° ESE
Cosmos 2123 Rocket 4.1 19:35:36 10° N 19:41:49 59° ENE 19:47:08 14° SSE
Cosmos 2239 Rocket 4.4 19:35:48 10° S 19:41:58 77° E 19:48:14 10° NNE
Cosmos 1821 Rocket 4.4 19:36:53 10° SSW 19:43:09 69° W 19:49:32 10° N
Gblst 52 Del rocket 4.4 19:37:16 10° WSW 19:43:13 84° SSE 19:50:07 10° ENE
Cosmos 2237 Rocket 3.5 19:39:22 10° SW 19:44:47 44° NW 19:50:14 10° NNE
Cosmos 2150 Rocket 3.9 19:44:45 10° S 19:49:48 62° ESE 19:54:58 10° NNE
Cosmos 1300 Rocket 4.0 19:48:14 19° SSE 19:50:47 40° E 19:54:49 10° NNE
Cosmos 2058 4.4 19:48:28 10° NNE 19:51:15 18° ENE 19:52:11 17° E
Cosmos 1346 Rocket 3.0 19:48:31 10° NNW 19:52:04 60° W 19:55:10 13° S
BREEZE-M DEB (TANK) 2.7 19:50:50 10° W 19:53:18 70° N 19:58:00 12° E
COSMOS 2455 3.9 19:48:41 10° NNW 19:54:07 34° NE 19:58:10 16° E
SL-4 R/B 3.0 19:55:13 10° SSW 19:57:34 24° SSE 19:57:34 24° SSE
BREEZE-M DEB (TANK) 4.1 19:54:21 10° SSW 19:58:39 51° SE 20:13:50 10° ENE
Cosmos 1602 2.6 19:56:53 10° NNW 19:59:09 65° W 19:59:39 45° SSW
Cosmos 1812 4.2 19:58:25 10° WSW 19:59:13 12° WNW 20:00:01 10° NW
SJ 16-02 3.5 20:00:17 10° NNE 20:02:23 13° NE 20:04:02 11° ENE
ASTEX 1 3.3 19:59:48 16° S 20:03:43 84° E 20:08:42 10° N
USA 59 Rocket 1.9 20:01:19 10° WNW 20:04:08 21° WSW 20:07:35 10° S
SWAS 4.4 20:00:36 10° NNW 20:04:38 64° ENE 20:06:21 32° SE
Gbstr 26 Del rocket 3.9 20:00:59 10° SSW 20:05:31 31° SE 20:06:31 28° ESE
Cosmos 1605 Rocket 4.4 20:02:58 22° SE 20:06:24 41° E 20:12:07 10° NNE
Cosmos 2297 3.7 20:01:27 10° NNW 20:07:14 84° ENE 20:10:44 25° SSE
Cosmos 1869 2.9 20:06:01 26° S 20:07:50 69° E 20:11:24 10° NNE
Cosmos 1315 Rocket 3.2 20:08:55 35° ESE 20:09:26 37° E 20:12:54 10° NNE
SPOT 3 Rocket 3.8 20:08:16 27° SE 20:10:54 52° ENE 20:15:55 10° N
Cosmos 2369 Rocket 2.2 20:05:58 10° NNW 20:11:35 82° WSW 20:14:59 25° SSE
ADEOS 4.3 20:06:35 10° S 20:11:38 52° W 20:16:45 10° NNW
USA 186 1.2 20:14:08 61° W 20:14:08 61° W 20:16:26 10° NNW
SL-08 R/B 3.6 20:09:10 10° N 20:14:05 74° WNW 20:18:57 10° SSW
Lacrosse 5 rocket 2.7 20:15:25 10° NW 20:18:01 23° NNE 20:19:32 16° NE
USA 234 3.2 20:12:18 10° NE 20:18:53 77° SE 20:25:27 10° SW
YAOGAN 11 4.0 20:15:07 10° NNE 20:19:25 89° WNW 20:23:06 14° SSW
Cosmos 2221 Rocket 4.2 20:15:09 10° NNW 20:19:28 55° W 20:22:40 17° SSW
Cosmos 2285 Rocket 4.0 20:14:29 10° SSW 20:20:52 85° WNW 20:27:15 10° NNE
Cosmos 405 Rocket 1.8 20:21:21 10° N 20:24:19 87° ENE 20:24:26 82° SSE
Cosmos 1943 3.3 20:23:24 17° S 20:27:43 55° ESE 20:33:15 10° NE
CZ-4B R/B 2.4 20:27:35 59° SE 20:28:03 71° ENE 20:31:27 10° N
NOSS 3-1 (A) 4.2 20:21:31 10° NW 20:28:20 64° NE 20:33:20 26° ESE
Molniya-1 3.8 20:26:07 10° SW 20:28:54 68° NW 20:35:25 10° NE
Cosmos 921 Rocket 3.4 20:24:45 10° N 20:29:04 50° ENE 20:30:06 40° ESE
CZ-4B R/B 4.5 20:24:14 10° SSW 20:29:25 38° W 20:34:40 10° NNW
Cosmos 1023 Rocket 4.3 20:26:28 10° NNW 20:31:36 86° ENE 20:33:36 38° SSE
SL-8 R/B 3.5 20:28:48 10° WSW 20:33:32 85° S 20:36:05 27° E
IRS-1C Rocket 4.1 20:31:47 36° SE 20:33:54 67° ENE 20:39:09 10° N
Cosmos 1975 Rocket 3.0 20:30:21 10° N 20:34:47 73° E 20:35:59 47° SSE
Helios 1B rocket 4.5 20:35:11 12° ENE 20:35:11 12° ENE 20:36:19 10° NE
Cosmos 1356 Rocket 3.3 20:36:35 54° ESE 20:36:55 56° E 20:40:51 10° NNE
Cosmos 2263 4.4 20:37:06 10° NNW 20:42:41 63° WSW 20:45:15 32° S
CZ-2C R/B 2.8 20:44:39 47° N 20:44:39 47° N 20:46:51 10° N
Cosmos 304 Rocket 4.2 20:41:39 10° NNW 20:46:14 47° ENE 20:47:13 41° E
Okean-O 3.8 20:44:32 21° SSW 20:46:55 38° W 20:51:01 10° NNW
Okean O Rocket 3.1 20:53:05 18° SW 20:55:27 30° W 20:59:17 10° NNW
CZ-4B R/B 3.4 20:55:25 44° S 20:56:52 71° WSW 21:01:37 10° NNW
Ariane Rocket 2.9 20:57:13 46° S 20:58:44 80° WSW 21:03:48 10° NNW
SL-16 R/B 3.6 20:55:36 10° WSW 21:00:53 39° NW 21:06:13 10° NNE
Cosmos 1782 Rocket 4.4 20:58:38 22° SW 21:01:04 46° WNW 21:05:15 10° N
Cosmos 1656 4.5 20:56:19 10° NNW 21:01:25 38° NE 21:02:57 32° E
Cosmos 1269 Rocket 4.4 21:03:41 10° NNW 21:08:52 56° WSW 21:10:20 41° SSW
ATLAS 5 CENTAUR R/B 2.1 21:06:32 10° NNW 21:10:28 49° NE 21:11:03 46° ENE
Cosmos 1140 Rocket 4.1 21:06:26 10° NNW 21:11:22 48° WSW 21:12:46 38° SSW
Terra 4.5 21:13:38 10° WSW 21:15:25 12° W 21:17:11 10° WNW
Cosmos 1818 4.0 21:16:41 10° NNW 21:22:04 54° NE 21:23:15 45° E
Cosmos 1862 4.2 21:19:45 10° NNW 21:22:56 36° W 21:22:56 36° W
Cosmos 1153 Rocket 4.4 21:22:56 46° S 21:24:59 90° E 21:31:20 10° N
Cosmos 2058 3.7 21:23:49 10° NNW 21:27:29 40° W 21:27:31 40° W
Cosmos 1459 Rocket 4.1 21:26:50 52° SE 21:27:51 58° E 21:34:00 10° NNE
Meteor 2-17 Rocket 4.4 21:21:42 10° NNW 21:27:52 80° W 21:29:29 52° S
Cosmos 407 Rocket 3.4 21:23:18 10° NNW 21:28:25 71° WSW 21:28:57 65° SSW
ARIANE 5 R/B 4.2 21:32:43 24° ENE 21:32:43 24° ENE 21:36:01 10° N
Cosmos 371 Rocket 3.2 21:28:17 10° NNW 21:33:08 78° WSW 21:33:16 77° SW
ATLAS 2AS CENTAUR R/B 3.8 21:38:08 26° E 21:38:08 26° E 21:42:12 10° ENE
Meteor 2-1 Rocket 4.3 21:37:34 58° ESE 21:37:51 59° E 21:43:30 10° NNE
Cosmos 2056 Rocket 4.5 21:40:33 35° ENE 21:40:33 35° ENE 21:44:26 10° NE
ARIANE 6 FM1 Upper Stage 4.4 21:36:13 10° NNW 21:39:32 24° NNE 21:40:04 24° NE
COSMOS 2455 2.9 21:34:29 10° NW 21:40:25 61° WSW 21:41:17 55° SSW
SJ 16-02 1.5 21:36:50 10° NNW 21:40:32 66° NNW 21:40:32 66° NNW
Cosmos 1802 Rocket 4.1 21:40:52 53° ESE 21:41:27 55° E 21:47:31 10° NNE
Cosmos 2251 Rocket 3.4 21:37:47 10° NNW 21:43:09 77° ENE 21:43:27 75° ESE
Cosmos 1536 Rocket 3.8 21:41:44 10° NNW 21:45:30 65° NNW 21:45:30 65° NNW
Cosmos 1816 Rocket 4.3 21:46:37 10° N 21:52:48 84° E 21:53:36 69° SSE
Cosmos 2369 Rocket 4.4 21:52:06 10° WNW 21:54:40 13° W 21:56:46 11° WSW
Lacrosse 5 rocket 3.3 21:51:47 10° NW 21:52:47 19° NW 21:52:47 19° NW
Cosmos 2016 Rocket 4.1 21:55:13 58° ESE 21:55:41 59° E 22:01:54 10° NNE
SeaSat 1 2.7 21:56:42 57° ENE 21:56:48 57° NE 22:01:37 10° NNW
USA 234 4.0 21:55:25 10° NE 22:01:44 52° NNW 22:08:02 10° W
Cosmos 2173 Rocket 3.9 22:03:21 60° SW 22:04:26 75° W 22:10:34 10° N
Cosmos 1697 Rocket 3.4 21:59:13 10° NNW 22:04:36 42° NE 22:05:24 40° ENE
Helios 1B rocket 3.9 22:09:10 29° NNW 22:09:10 29° NNW 22:11:05 10° NNW
Cosmos 1603 4.2 22:07:59 40° WSW 22:09:49 58° WNW 22:15:28 10° NNE
Cosmos 1892 Rocket 4.3 22:05:38 10° N 22:09:00 49° NNE 22:09:00 49° NNE
YAOGAN 20A 4.5 22:12:03 84° ESE 22:12:03 84° ESE 22:18:13 10° NE
Meteor 2-3 Rocket 3.8 22:08:17 10° NNW 22:13:48 62° W 22:14:03 61° WSW
Okean 1 Rocket 3.8 22:17:47 50° NNW 22:17:47 50° NNW 22:21:16 10° N
Cosmos 1371 Rocket 4.2 22:23:18 66° NE 22:23:18 66° NE 22:27:55 10° NNE
Helios 1A 4.2 22:19:03 10° N 22:22:03 37° NW 22:22:03 37° NW
Okean 2 Rocket 4.0 22:24:29 45° NW 22:24:29 45° NW 22:28:16 10° N
Cosmos 1980 Rocket 3.5 22:20:03 10° NNW 22:25:08 31° NE 22:26:39 27° ENE
Cosmos 1455 Rocket 4.0 22:28:48 47° NNE 22:28:48 47° NNE 22:31:59 10° N
Cosmos 968 Rocket 3.7 22:22:24 10° NNW 22:27:16 64° NE 22:27:16 64° NE
Tsikada Rocket 3.8 22:25:32 10° N 22:31:51 87° E 22:32:10 81° SSE
Cosmos 2061 Rocket 3.9 22:35:46 74° ESE 22:35:51 74° E 22:42:04 10° NNE
Meteor 1-27 4.2 22:40:55 86° NNW 22:40:55 86° NNW 22:46:33 10° N
ATLAS 5 CENTAUR R/B 3.7 22:48:42 10° WNW 22:50:10 19° WNW 22:50:10 19° WNW
ATLAS 3B R/B 3.2 22:45:08 10° NW 22:52:57 64° NE 22:55:41 41° ESE
Aureole 3 Rocket 3.7 22:58:44 75° NNE 22:58:44 75° NNE 23:04:44 10° N
Cosmos 1833 Rocket 2.7 23:01:17 76° NNE 23:01:17 76° NNE 23:06:28 10° NNE
Cosmos 2082 Rocket 3.9 23:02:51 21° E 23:02:51 21° E 23:06:04 10° NE
ALOS 2 3.8 23:03:31 39° NW 23:03:31 39° NW 23:06:27 10° NNW
BREEZE-M R/B 4.4 22:56:40 10° W 23:05:00 74° N 23:10:43 10° E
ARIANE 5 R/B 4.1 23:10:04 30° NW 23:10:04 30° NW 23:12:43 10° NNW
CZ-2C R/B 3.5 23:04:44 10° NNE 23:09:16 55° ENE 23:09:16 55° ENE
Cosmos 2228 4.5 23:18:31 33° NNW 23:18:31 33° NNW 23:21:11 10° N
USA 229 DEB 3.9 23:11:40 10° NW 23:19:10 82° SW 23:20:33 65° SSE
USA 229 3.9 23:11:43 10° NW 23:19:14 83° SW 23:20:40 64° SSE
Cosmos 2233 Rocket 4.5 23:18:32 46° W 23:19:16 48° WNW 23:25:19 10° N
Cosmos 1850 Rocket 4.5 23:16:01 10° NNW 23:20:06 54° NW 23:20:06 54° NW
SL-16 R/B 4.2 23:19:04 10° N 23:23:33 23° NE 23:27:51 11° E
ATLAS 2AS CENTAUR R/B 2.7 23:25:29 58° WSW 23:26:52 74° NW 23:33:42 10° NE
Cosmos 1331 Rocket 4.3 23:27:28 66° NNW 23:27:28 66° NNW 23:32:09 10° NNE
CZ-2C R/B 2.7 23:29:07 77° NNE 23:29:07 77° NNE 23:34:12 10° NNW
SeaSat 1 4.3 23:36:18 20° WNW 23:36:18 20° WNW 23:38:26 10° NW
Cosmos 2098 Rocket 3.8 23:36:56 66° ENE 23:36:56 66° ENE 23:42:08 10° NNE
Timation 1 Rocket 4.2 23:42:54 86° NW 23:42:54 86° NW 23:48:56 10° NNE
Nadezhda 4 Rocket 3.8 23:36:44 10° N 23:42:55 86° E 23:43:04 84° ESE
USA 234 4.4 23:38:01 10° ENE 23:44:04 42° N 23:50:07 10° WNW
ACS3 Solar Sail 2.7 23:38:41 10° NNE 23:44:09 34° E 23:44:42 34° ESE
Meteor 1-25 Rocket 4.2 23:39:20 10° NNW 23:44:52 80° NW 23:44:52 80° NW
Cosmos 1697 Rocket 3.8 23:43:22 10° NW 23:47:06 32° WNW 23:47:06 32° WNW
